Location: Bastrop State Park
(30.1090°N, 97.2819°W)
Time: 15:56:32
(UTC-05:00)

Daily predictions for brighter satellites

Satellite Brightness Start Highest point End
(mag) Time Altitude Azimuth Time Altitude Azimuth Time Altitude Azimuth
Atlas Centaur 2 3.2 20:16:12 10° SW 20:22:09 40° SSE 20:29:20 10° E
Molniya-1 1.8 20:25:50 10° SSW 20:27:24 69° ESE 20:29:03 10° NE
SL-8 R/B 4.3 20:24:30 10° NW 20:29:07 45° NE 20:33:44 10° ESE
Cosmos 1455 2.4 20:30:12 10° SSE 20:33:51 46° E 20:37:29 10° NNE
In-Cosmos 22 Rocket 4.3 20:32:39 10° N 20:37:58 79° W 20:43:16 10° S
DELTA 2 R/B (1) 4.1 20:39:06 10° NW 20:44:35 52° NNE 20:49:34 12° E
Cosmos 1869 3.9 20:43:17 10° SSE 20:46:50 34° E 20:50:25 10° NNE
CZ-3B DEB 0.9 20:43:16 10° NNW 20:47:11 50° NE 20:48:45 18° ESE
Spot 2 Rocket 3.7 20:43:42 10° SSE 20:48:39 55° ENE 20:53:37 10° N
Lacrosse 5 4.5 20:46:53 10° W 20:49:35 15° WSW 20:52:19 10° SSW
Resurs 01 Rocket 1.7 20:46:16 10° SSE 20:50:38 62° ENE 20:55:03 10° N
OAO 3 Rocket 3.8 20:46:27 10° W 20:51:14 55° N 20:56:05 10° ENE
SJ-6B 3.8 20:47:54 10° S 20:51:40 49° W 20:55:31 10° NNW
FENGYUN 3A 4.0 20:48:05 10° S 20:53:25 69° WSW 20:58:45 10° NNW
Cosmos 1892 2.6 20:53:48 10° N 20:57:36 86° E 21:01:24 10° S
GRACE-1 3.9 20:55:27 10° NNE 20:58:09 52° E 21:00:31 12° SSE
GRACE-2 3.9 20:55:51 10° NNE 20:58:32 52° E 21:00:50 13° SSE
FALCON 9 R/B 1.6 20:56:17 10° W 20:59:07 36° NNW 21:00:47 14° NE
Cosmos 2297 Rocket 3.7 20:54:25 10° NW 20:59:32 36° WSW 21:04:38 10° SSW
Cosmos 1400 Rocket 2.9 20:56:32 10° N 21:00:27 78° W 21:04:22 10° S
H-2A R/B 3.0 20:57:48 10° S 21:01:43 73° W 21:05:36 10° NNW
Meteor 1-29 3.5 21:01:19 10° NNE 21:04:30 34° E 21:06:41 17° SSE
Cosmos 2142 Rocket 4.5 20:59:21 10° S 21:05:21 61° E 21:11:23 10° NNE
Cosmos 2322 Rocket 2.1 21:00:47 10° S 21:06:17 62° ESE 21:11:49 10° NNE
Cosmos 2263 Rocket 4.0 21:04:05 10° NNE 21:06:54 14° ENE 21:08:25 13° ENE
Envisat 3.7 21:05:47 20° SE 21:08:39 35° ENE 21:13:12 10° N
Cosmos 1933 4.5 21:11:30 23° E 21:11:30 23° E 21:14:43 10° NE
Cosmos 1315 Rocket 2.7 21:10:06 10° N 21:14:09 74° E 21:17:08 17° SSE
Cosmos 2360 Rocket 3.1 21:15:49 24° ESE 21:16:51 25° ESE 21:21:23 10° NE
Cosmos 1980 Rocket 4.1 21:12:37 10° SW 21:17:37 32° WNW 21:22:40 10° N
OTV 4 0.5 21:16:56 10° WNW 21:19:46 60° SSW 21:20:12 51° SSE
CZ-2D R/B 3.7 21:18:25 10° S 21:22:15 60° W 21:26:07 10° NNW
H-2A R/B (2) 4.4 21:18:56 10° WSW 21:23:37 29° S 21:33:12 17° SE
GENESIS II 4.2 21:21:42 10° SSW 21:25:44 89° ESE 21:29:48 10° NNE
USA 234 4.1 21:22:53 21° E 21:26:30 37° NE 21:32:24 10° NNW
SEDSat Delta rocket 3.5 21:21:36 10° WSW 21:26:53 86° SSE 21:30:34 24° E
CZ-3 Stage 3 4.0 20:54:12 10° WNW 21:26:55 49° SW 21:31:42 20° SSE
Cosmos 1825 2.6 21:23:30 10° N 21:27:06 40° E 21:27:16 40° E
Cosmos 2026 Rocket 4.0 21:24:40 10° N 21:30:48 60° E 21:34:22 25° SSE
SL-16 R/B 2.4 21:28:20 10° SSW 21:33:59 74° WNW 21:39:40 10° NNE
USA 186 2.5 21:34:07 34° SW 21:34:39 39° W 21:37:16 10° NNW
GPS 2-04 Rocket1 3.7 21:32:18 10° W 21:35:31 30° SSW 21:36:03 29° SSW
ATLAS CENTAUR R/B 3.3 21:32:42 10° NW 21:36:05 47° SW 21:42:08 17° SSE
Cosmos 1862 4.0 21:37:01 10° N 21:40:18 39° ENE 21:40:18 39° ENE
ERS-1 Rocket 3.7 21:42:09 34° ENE 21:42:19 34° ENE 21:46:49 10° N
SAR-Lupe-4 3.6 21:42:20 54° SSW 21:43:00 74° WSW 21:46:36 10° NNW
Helios 1B rocket 3.5 21:39:26 10° N 21:43:21 46° WNW 21:47:16 10° SSW
Cosmos 1939 Rocket 2.7 21:44:21 65° ESE 21:44:43 70° ENE 21:48:44 10° N
Skynet4D Del rocket 4.4 21:36:41 10° WSW 21:44:54 69° S 21:48:17 36° ESE
Intercosmos 25 Rocket 3.5 21:43:45 29° SSW 21:45:04 53° W 21:48:24 10° N
Lacrosse 4 Rocket 2.1 21:41:10 10° N 21:45:08 39° ENE 21:45:08 39° ENE
ATLAS 5 CENTAUR R/B 4.0 21:42:25 10° N 21:46:40 19° NE 21:47:45 18° ENE
ERBS 3.5 21:43:29 10° NNW 21:46:04 33° NNE 21:46:04 33° NNE
Milstar 3 2.7 21:42:54 10° W 21:50:46 73° S 21:53:09 42° ESE
Cosmos 1733 Rocket 3.0 21:46:57 10° N 21:51:22 63° E 21:51:22 63° E
Cosmos 1862 Rocket 3.5 21:50:04 40° S 21:51:37 87° W 21:56:07 10° N
Sakura Rocket 3.7 21:47:53 10° SW 21:50:46 38° SSW 21:50:46 38° SSW
SeaSat 1 4.2 21:57:02 18° NE 21:57:02 18° NE 21:59:44 10° NNE
Cosmos 1655 Rocket 3.9 21:51:35 10° N 21:58:00 83° E 22:00:35 39° S
Meteor 1-26 Rocket 4.3 21:58:32 51° E 21:58:32 51° E 22:03:59 10° NNE
Cosmos 1408 3.2 21:58:30 10° NNW 22:01:58 53° W 22:01:58 53° W
USA 229 DEB 3.5 22:00:29 10° SSW 22:07:11 65° ESE 22:13:58 10° NE
USA 229 3.5 22:00:35 10° SSW 22:07:16 64° ESE 22:14:03 10° NE
Atlas Centaur 2 2.8 22:04:15 10° WSW 22:11:29 80° SSE 22:14:12 47° E
Cosmos 2266 Rocket 4.4 22:12:49 10° N 22:18:12 47° ENE 22:18:12 47° ENE
MetOp-A 4.4 22:28:38 58° NNE 22:28:38 58° NNE 22:33:01 10° N
H-2A R/B 3.8 22:33:27 20° NNE 22:33:27 20° NNE 22:35:19 10° NNE
DELTA 2 R/B (1) 4.2 22:25:39 10° WNW 22:30:21 45° WSW 22:30:21 45° WSW
OAO 3 Rocket 4.2 22:30:26 10° WNW 22:34:28 45° NNW 22:34:28 45° NNW
SPOT 5 4.2 22:43:25 34° N 22:43:25 34° N 22:46:05 10° N
COSMOS 2428 4.4 22:52:07 23° NNE 22:52:07 23° NNE 22:54:07 10° NNE
H-2A R/B 3.8 14:46:01 10° SSW 22:49:11 83° S 22:51:40 59° ESE
Cosmos 2263 Rocket 2.8 22:45:43 10° NNW 22:50:09 52° WNW 22:50:09 52° WNW
Cosmos 2360 Rocket 3.7 22:57:15 18° WSW 23:00:36 33° WNW 23:05:40 10° N
USA 234 3.9 23:10:15 47° W 23:10:15 47° W 23:15:37 10° NW
ATLAS 5 CENTAUR R/B 3.6 23:25:35 10° NW 23:29:19 39° NW 23:29:19 39° NW
